[[{"header":{"parameterUnit":"m.s-1","parameterCategory":1,"la1":30.2991,"la2":30.254,"lo1":-89.0895,"lo2":-89.0444,"dy":0.0017,"dx":0.0017,"nx":28,"ny":28,"refTime":"2024-04-02T21:00:00:Z","depth":0,"parameterNumber":2,"parameterNumberName":"U-component_of_WINDS"},"data":[0,0,0,0,0,0,0,0,0,0,0,0,0,0,0,0,0,0,0,0,0,0,0,0,0,0,0,0,0,0,0,0,0,0,0,0,0,0,0,0,0,0,0,0,0,0,0,0,0,0,0,0,0,0,0,0,0,0,4.5715,4.5717,0,4.5874,4.5876,4.5878,4.5834,4.5831,4.5828,4.5825,4.5989,4.5996,4.6003,0,0,0,0,0,0,0,0,0,0,0,0,0,4.5375,4.5381,4.5715,4.5717,4.5719,4.5874,4.5876,4.5878,4.5835,4.5831,4.5827,4.5823,4.5986,4.5995,4.6004,0,0,0,0,0,0,0,0,0,0,0,0,0,4.5527,4.5384,4.5715,4.5716,4.5717,4.5873,4.5876,4.5879,4.5835,4.5831,4.5826,4.5821,4.5983,4.5994,4.6005,4.617,0,0,4.6039,4.6044,0,0,0,0,0,0,0,0,4.5519,4.554,4.5714,4.5716,4.5718,4.5829,4.5816,4.5976,4.5837,4.5791,4.5825,4.5819,4.594,4.5954,4.5995,4.6178,4.6185,4.604,4.6047,4.6051,4.6054,0,0,0,0,0,0,0,4.5508,4.5533,4.5778,4.5716,4.5719,4.5709,4.5725,4.5846,4.589,4.5794,4.5792,4.5811,4.594,4.5984,4.5998,4.6187,4.604,4.6049,4.6056,4.6061,4.6514,4.6519,0,0,0,0,0,0,4.5496,4.5524,4.5773,4.5783,4.5604,4.5719,4.5737,4.5799,4.5889,4.5898,4.5815,4.5808,4.5967,4.5985,4.6004,4.6203,4.6051,4.6062,4.6068,4.6509,4.6515,4.6521,0,0,0,0,0,0,4.5489,4.5518,4.5766,4.5653,4.5684,4.573,4.5799,4.5804,4.5848,4.5904,4.5912,4.5852,4.5964,4.5988,4.6129,4.6208,4.6067,4.6077,4.6502,4.6511,4.6518,4.6603,0,0,0,0,0,0,4.5479,4.5516,4.5579,4.5655,4.569,4.5889,4.5804,4.5811,4.5867,4.586,4.5941,4.595,4.5962,4.6113,4.614,4.6221,4.6085,4.6495,4.6506,4.6516,4.6593,4.6613,4.6629,0,0,0,0,0,4.5467,4.5596,4.5582,4.5612,4.5769,4.5894,4.5914,4.5925,4.5874,4.5937,4.5974,4.5947,4.6195,4.6128,4.6158,4.6243,4.6491,4.6503,4.6515,4.6585,4.6609,4.6629,0,0,0,0,0,0,4.5529,4.5606,4.5591,4.5749,4.5815,4.5886,4.5966,4.595,4.6033,4.6023,4.6034,4.6053,4.6197,4.6234,4.6157,4.6408,4.6335,4.6354,4.6378,4.6401,4.6419,4.6407,4.6094,0,0,0,0,0,4.5561,4.5655,4.5717,4.585,4.5884,4.592,4.5975,4.5978,4.6047,4.6075,4.6121,4.619,4.6283,4.6344,4.6433,4.6598,4.6615,4.6672,4.669,4.6705,4.6721,4.6811,4.6837,4.6561,4.6561,4.6561,0,0,4.5628,4.5682,4.574,4.5864,4.5916,4.6014,4.5944,4.605,4.6123,4.6091,4.6227,4.6264,4.6341,4.6495,4.6565,4.653,4.6801,4.672,4.6731,4.674,4.6827,4.6853,4.6876,4.6569,4.6568,4.6567,0,0,4.58,4.585,4.5966,4.6019,4.6098,4.6121,4.6149,4.6223,4.6246,4.6383,4.6361,4.6448,4.6608,4.6664,4.6714,4.6908,4.6887,4.6937,4.7032,4.712,4.7142,4.7161,4.7231,4.7255,4.6952,4.6953,4.6953,0,4.5873,4.6019,4.6028,4.6137,4.6192,4.6168,4.6286,4.6337,4.6442,4.6481,4.644,4.6641,4.6692,4.6858,4.6906,4.6947,4.6979,4.6927,4.7138,4.7157,4.7175,4.7242,4.7268,4.6958,4.6958,4.6957,4.6957,0,4.6105,4.6207,4.6292,4.6393,4.6458,4.6571,4.6598,4.6662,4.666,4.6688,4.6827,4.6887,4.6988,4.7027,4.7026,4.7195,4.7171,4.7134,4.7062,4.7207,4.727,4.7295,4.6966,4.6964,4.6963,4.6961,0,0,4.632,4.6425,4.6456,4.6502,4.6587,4.6666,4.6779,4.6877,4.6932,4.7005,4.71,4.7237,4.7203,4.726,4.7265,4.7342,4.7493,4.7296,4.7298,4.7331,4.7682,4.7709,4.7738,4.7479,4.7484,4.7488,4.7676,0,4.65,4.6696,4.6708,4.6887,4.6981,4.696,4.7058,4.7121,4.715,4.7235,4.7266,4.7363,4.7312,4.7346,4.7421,4.7458,4.7563,4.7445,4.7568,4.7572,4.7549,4.7771,4.78,4.7974,4.77,4.7704,4.7708,0,4.6735,4.6815,4.7003,4.7075,4.7116,4.7203,4.7294,4.7375,4.7447,4.7463,4.7526,4.7521,4.7636,4.756,4.772,4.7639,4.769,4.7716,4.7723,4.7735,4.7648,4.7789,4.803,4.8056,4.7746,4.7743,4.774,0,4.6873,4.7028,4.716,4.72,4.7288,4.735,4.739,4.7457,4.7515,4.7596,4.7634,4.7726,4.7777,4.7849,4.7869,4.7812,4.8029,4.7954,4.8046,4.8045,4.8092,4.8089,4.8345,4.8125,4.8125,4.8124,4.8124,0,4.7073,4.7188,4.7224,4.7305,4.7435,4.7448,4.7576,4.7611,4.7671,4.776,4.7747,4.7831,4.7852,4.794,4.7956,4.8086,4.8109,4.8125,4.8128,4.8127,4.8125,4.816,4.8148,4.8131,4.813,4.8129,4.8127,0,4.7249,4.7277,4.742,4.7491,4.7512,4.7605,4.7666,4.7745,4.7772,4.7884,4.7911,4.7954,4.8057,4.8084,4.8207,4.8218,4.8371,4.8363,4.8347,4.8347,4.8437,4.8428,4.8724,4.8764,4.8518,4.8521,4.8523,0,4.7374,4.7462,4.7544,4.7602,4.7644,4.7738,4.7797,4.7814,4.7877,4.7966,4.8034,4.8135,4.8216,4.8381,4.8424,4.8518,4.8512,4.8609,4.8526,4.8521,4.8513,4.8508,4.8517,4.8625,4.8628,4.863,4.8631,0,4.7593,4.7603,4.7689,4.778,4.7852,4.7925,4.7995,4.8043,4.807,4.8141,4.8245,4.8309,4.8434,4.8535,4.863,4.8671,4.8657,4.8657,4.8684,4.8682,4.867,4.8678,4.839,4.865,4.8649,4.8647,4.8646,4.8645,4.7748,4.7826,4.7895,4.7991,4.8046,4.8111,4.8189,4.8226,4.8313,4.8416,4.8421,4.8535,4.8605,4.8731,4.8778,4.8867,4.8838,4.8876,4.8885,4.8895,4.8902,4.8655,4.8885,4.8884,4.8884,4.8883,4.8883,0,4.7967,4.801,4.8099,4.8197,4.8273,4.8252,4.8328,4.8393,4.8493,4.856,4.864,4.8761,4.8859,4.8909,4.9006,4.9068,4.9064,4.9093,4.9089,4.9099,4.8923,4.889,4.9095,4.9095,4.9095,4.9095,4.9095,4.9095,4.8089,4.822,4.8238,4.8395,4.8438,4.8549,4.8595,4.8655,4.8709,4.8844,4.8924,4.8956,4.9017,4.9118,4.9207,4.922,4.9256,4.9289,4.9298,4.9133,4.9111,4.909,4.906,4.9297,4.9297,4.9466,4.9468,4.9469]},{"header":{"parameterUnit":"m.s-1","parameterCategory":1,"la1":30.2991,"la2":30.254,"lo1":-89.0895,"lo2":-89.0444,"dy":0.0017,"dx":0.0017,"nx":28,"ny":28,"refTime":"2024-04-02T21:00:00:Z","depth":0,"parameterNumber":3,"parameterNumberName":"V-component_of_WINDS"},"data":[0,0,0,0,0,0,0,0,0,0,0,0,0,0,0,0,0,0,0,0,0,0,0,0,0,0,0,0,0,0,0,0,0,0,0,0,0,0,0,0,0,0,0,0,0,0,0,0,0,0,0,0,0,0,0,0,0,0,-3.6002,-3.6004,0,-3.6212,-3.6215,-3.6217,-3.6208,-3.6205,-3.6202,-3.6199,-3.642,-3.6428,-3.6437,0,0,0,0,0,0,0,0,0,0,0,0,0,-3.5597,-3.5604,-3.6001,-3.6004,-3.6007,-3.6212,-3.6215,-3.6218,-3.6208,-3.6205,-3.6201,-3.6198,-3.6417,-3.6427,-3.6438,0,0,0,0,0,0,0,0,0,0,0,0,0,-3.5786,-3.5606,-3.6001,-3.6027,-3.6031,-3.6211,-3.6215,-3.6219,-3.6209,-3.6205,-3.62,-3.6196,-3.6414,-3.6426,-3.6439,-3.6609,0,0,-3.6479,-3.6484,0,0,0,0,0,0,0,0,-3.5776,-3.5801,-3.602,-3.6025,-3.603,-3.6179,-3.6153,-3.635,-3.621,-3.6142,-3.6199,-3.6194,-3.6344,-3.6362,-3.6412,-3.6619,-3.6629,-3.648,-3.6488,-3.6493,-3.6497,0,0,0,0,0,0,0,-3.5763,-3.5792,-3.6085,-3.6024,-3.603,-3.603,-3.6052,-3.619,-3.6266,-3.6147,-3.6147,-3.6172,-3.6346,-3.6399,-3.6417,-3.6632,-3.6479,-3.6491,-3.6499,-3.6504,-3.6992,-3.6997,0,0,0,0,0,0,-3.5743,-3.5781,-3.6078,-3.6091,-3.5889,-3.604,-3.6065,-3.6136,-3.6264,-3.6279,-3.6176,-3.6171,-3.6379,-3.6402,-3.6425,-3.6634,-3.6493,-3.6505,-3.6513,-3.6987,-3.6994,-3.6999,0,0,0,0,0,0,-3.5734,-3.577,-3.607,-3.5936,-3.5975,-3.6052,-3.6132,-3.6143,-3.6196,-3.6285,-3.6299,-3.6216,-3.6377,-3.6406,-3.6563,-3.6641,-3.6511,-3.6523,-3.6981,-3.6989,-3.6996,-3.7052,0,0,0,0,0,0,-3.5723,-3.5767,-3.5831,-3.5938,-3.5982,-3.6204,-3.6137,-3.615,-3.6218,-3.6214,-3.6327,-3.6341,-3.6375,-3.6544,-3.6576,-3.6657,-3.6533,-3.6975,-3.6985,-3.6994,-3.7044,-3.7061,-3.7075,0,0,0,0,0,-3.5708,-3.5839,-3.5834,-3.587,-3.6063,-3.6208,-3.6233,-3.6268,-3.6224,-3.629,-3.6348,-3.6338,-3.6627,-3.656,-3.6597,-3.6682,-3.697,-3.6982,-3.6993,-3.7037,-3.7057,-3.7075,0,0,0,0,0,0,-3.574,-3.5853,-3.5849,-3.6018,-3.6103,-3.6206,-3.6291,-3.6289,-3.639,-3.6382,-3.6423,-3.6449,-3.6606,-3.666,-3.6583,-3.6854,-3.6793,-3.6813,-3.6814,-3.6834,-3.685,-3.6834,-3.6544,0,0,0,0,0,-3.5766,-3.5873,-3.5967,-3.6106,-3.6149,-3.6213,-3.6277,-3.6296,-3.6387,-3.6424,-3.6493,-3.6583,-3.6695,-3.6767,-3.6875,-3.7051,-3.7077,-3.7128,-3.7144,-3.7156,-3.7173,-3.7273,-3.7297,-3.7037,-3.7037,-3.7037,0,0,-3.5822,-3.5897,-3.5962,-3.6115,-3.6183,-3.6295,-3.6243,-3.6363,-3.6447,-3.6443,-3.6595,-3.6649,-3.6753,-3.6921,-3.6998,-3.697,-3.725,-3.7171,-3.718,-3.7191,-3.7287,-3.7312,-3.7333,-3.7045,-3.7044,-3.7043,0,0,-3.5982,-3.6048,-3.6172,-3.6242,-3.6346,-3.6387,-3.6417,-3.6521,-3.6556,-3.671,-3.671,-3.6811,-3.7001,-3.7076,-3.7138,-3.7327,-3.7322,-3.7361,-3.7444,-3.7541,-3.7561,-3.7579,-3.7649,-3.7673,-3.7377,-3.7377,-3.7377,0,-3.6039,-3.6205,-3.6237,-3.6358,-3.6426,-3.6426,-3.6553,-3.662,-3.6755,-3.6802,-3.6768,-3.7008,-3.7078,-3.7264,-3.731,-3.736,-3.7398,-3.7348,-3.7555,-3.7574,-3.7592,-3.7658,-3.7684,-3.7381,-3.738,-3.738,-3.738,0,-3.6271,-3.6386,-3.6474,-3.6603,-3.668,-3.6804,-3.6857,-3.6932,-3.6945,-3.6991,-3.7148,-3.7232,-3.7357,-3.7402,-3.7416,-3.7592,-3.7571,-3.7546,-3.7485,-3.762,-3.7683,-3.7709,-3.7387,-3.7385,-3.7384,-3.7383,0,0,-3.6456,-3.6601,-3.6633,-3.6692,-3.6807,-3.6898,-3.7022,-3.7143,-3.7208,-3.7301,-3.7408,-3.7569,-3.7547,-3.7618,-3.7641,-3.7725,-3.7872,-3.769,-3.7693,-3.7722,-3.8072,-3.8092,-3.812,-3.7869,-3.7874,-3.7877,-3.8064,0,-3.6628,-3.6847,-3.688,-3.7074,-3.7182,-3.7184,-3.7293,-3.7377,-3.7423,-3.7523,-3.7575,-3.7689,-3.765,-3.7693,-3.7777,-3.7836,-3.7943,-3.7823,-3.7971,-3.7976,-3.7946,-3.8153,-3.8174,-3.8346,-3.8089,-3.8093,-3.8096,0,-3.6859,-3.6957,-3.7161,-3.7262,-3.7309,-3.7406,-3.752,-3.7615,-3.7711,-3.7738,-3.7818,-3.7831,-3.7963,-3.7895,-3.8079,-3.7996,-3.8059,-3.8097,-3.8105,-3.8122,-3.8045,-3.8177,-3.8402,-3.8428,-3.8135,-3.8132,-3.8129,0,-3.6976,-3.7159,-3.7305,-3.7355,-3.7476,-3.7545,-3.7599,-3.769,-3.7761,-3.7862,-3.7909,-3.8023,-3.8087,-3.8177,-3.8221,-3.8168,-3.8402,-3.8338,-3.8431,-3.8431,-3.8482,-3.8478,-3.8721,-3.8519,-3.8519,-3.8518,-3.8518,0,-3.7166,-3.7291,-3.7359,-3.7449,-3.759,-3.7628,-3.7767,-3.782,-3.7901,-3.8003,-3.8012,-3.8108,-3.816,-3.8265,-3.8301,-3.8448,-3.8476,-3.8504,-3.8513,-3.8505,-3.8501,-3.8548,-3.8538,-3.8525,-3.8524,-3.8523,-3.8521,0,-3.7321,-3.7371,-3.7531,-3.7632,-3.7661,-3.7761,-3.7849,-3.7938,-3.7983,-3.8112,-3.8145,-3.8217,-3.8341,-3.8394,-3.8546,-3.857,-3.874,-3.8739,-3.8707,-3.871,-3.8801,-3.8793,-3.9084,-3.9125,-3.8894,-3.8896,-3.8898,0,-3.7439,-3.7536,-3.7647,-3.7715,-3.7771,-3.7881,-3.7953,-3.7995,-3.807,-3.8187,-3.8262,-3.8385,-3.8486,-3.8684,-3.8752,-3.8869,-3.8872,-3.8966,-3.8889,-3.8879,-3.8876,-3.887,-3.8881,-3.898,-3.8982,-3.8984,-3.8986,0,-3.7645,-3.7665,-3.7768,-3.788,-3.7966,-3.8056,-3.8145,-3.8201,-3.8257,-3.8341,-3.8467,-3.8545,-3.87,-3.8824,-3.8945,-3.9003,-3.9006,-3.9009,-3.9037,-3.9031,-3.901,-3.9024,-3.8747,-3.9003,-3.9001,-3.9,-3.8999,-3.8998,-3.7788,-3.7874,-3.7966,-3.8081,-3.8151,-3.8234,-3.8323,-3.8379,-3.8484,-3.8612,-3.8631,-3.8766,-3.8861,-3.9024,-3.9087,-3.9195,-3.9172,-3.9212,-3.9222,-3.9232,-3.9239,-3.8991,-3.9217,-3.9216,-3.9216,-3.9216,-3.9215,0,-3.7996,-3.8055,-3.816,-3.8283,-3.8374,-3.8365,-3.8463,-3.8541,-3.8658,-3.8746,-3.8845,-3.8991,-3.911,-3.9187,-3.9309,-3.9381,-3.9385,-3.9411,-3.9408,-3.9422,-3.9252,-3.9216,-3.9406,-3.9406,-3.9406,-3.9406,-3.9406,-3.9406,-3.8115,-3.826,-3.8292,-3.8474,-3.8533,-3.8664,-3.8721,-3.8798,-3.8868,-3.903,-3.9129,-3.9177,-3.9262,-3.939,-3.95,-3.952,-3.9565,-3.9594,-3.9613,-3.9453,-3.9433,-3.9414,-3.9381,-3.9603,-3.9603,-3.9774,-3.9775,-3.9777]}]]